Location: ????????
(38.4362°N, 22.8767°E)
Time: 03:46:56
(UTC+00:00)

METEOR-M - Pass Details

Date: 23 April 2024
Orbit: 814 x 818 km, 98.6° (Epoch: 20 May)

Event Time Altitude Azimuth Distance (km) Brightness Sun altitude
Rises 02:19:44 0° 6° (N) 3,348 7.9 -15.4°
Reaches altitude 10° 02:22:10 10° 1° (N) 2,412 7.0 -15.0°
Maximum altitude 02:27:14 46° 289° (WNW) 1,087 4.5 -14.2°
Enters shadow 02:30:57 18° 223° (SW) 1,918 5.5 -13.5°
